SCP
0 0 0 0 0 0 0 0 0 0 0 0 0 0 1 0 0 0 0 0 0 0 0 0 0 0 0 0 0 0 0 0 0 0 0 0 0 0 0 0 0 0 0 0
0 0 0 0 0 0 0 0 0 0 0 0 1 1 1 1 1 1 1 0 0 0 0 0 0 0 0 0 0 1 0 0 0 0 0 0 0 0 0 0 0 0 0 0
0 0 0 0 0 0 0 0 0 0 0 1 1 1 1 1 1 1 1 1 0 0 0 0 0 0 1 1 1 1 0 0 0 0 0 0 0 0 0 0 0 0 0 0
0 0 0 0 0 0 0 0 0 0 1 1 1 1 1 1 1 1 1 1 0 0 0 0 0 1 1 1 1 1 0 0 0 0 0 0 0 0 0 0 0 0 0 0
0 0 0 0 0 0 0 0 0 0 1 1 1 1 1 1 1 1 1 1 1 0 0 0 1 1 1 1 1 1 0 0 0 0 0 0 0 0 0 0 0 0 0 0
0 0 0 0 0 0 0 0 0 0 0 0 1 1 1 1 1 1 1 1 1 1 0 1 1 1 1 1 1 0 0 0 0 0 0 0 0 0 0 0 0 0 0 0
0 0 0 0 0 0 0 0 0 0 0 0 0 0 0 0 0 1 1 1 1 1 0 0 1 1 1 1 1 0 0 0 0 0 0 0 0 0 0 0 0 0 0 0
0 0 0 0 0 0 0 0 0 0 0 0 0 0 0 0 0 0 0 1 1 1 0 0 1 1 1 0 0 0 0 0 0 0 0 0 0 0 0 0 0 0 0 0
0 0 0 0 0 0 0 0 0 0 0 0 0 0 0 0 0 0 0 0 0 0 0 0 0 0 0 0 0 0 0 0 0 0 0 0 0 0 0 0 0 0 0 0
0 0 0 0 0 0 0 0 0 0 0 0 0 0 0 0 0 0 0 0 0 0 0 0 0 0 0 0 0 0 0 0 0 0 0 0 0 0 0 0 0 0 0 0
0 0 0 0 0 0 0 0 0 0 0 0 0 0 0 0 0 0 0 0 0 0 0 0 0 0 0 0 0 0 0 0 0 0 0 0 0 0 0 0 0 0 0 0
0 0 0 0 0 0 0 0 0 0 0 0 0 0 0 0 0 0 0 0 0 0 0 0 0 0 0 0 0 0 0 0 0 0 0 0 0 0 0 0 0 0 0 0
0 0 0 0 0 0 0 0 0 0 0 0 0 0 0 0 0 0 0 0 0 0 0 0 0 0 0 0 0 0 0 0 0 0 0 0 0 0 0 0 0 0 0 0
0 0 0 0 0 0 0 0 0 0 0 0 0 0 0 0 0 0 0 0 0 0 0 0 0 0 0 0 0 0 0 0 0 0 0 0 0 0 0 0 0 0 0 0
0 0 0 0 0 0 0 0 0 0 0 0 0 0 0 0 0 0 0 0 0 0 0 0 0 0 0 0 0 0 0 0 0 0 0 0 0 0 0 0 0 0 0 0
0 0 0 0 0 0 0 0 0 0 0 0 0 0 0 0 0 0 0 0 0 0 0 0 0 0 0 0 0 0 0 0 0 0 0 0 0 0 0 0 0 0 0 -0
0 0 0 0 0 0 0 0 0 0 0 0 0 0 0 0 0 0 0 0 0 0 0 0 0 0 0 0 0 0 0 0 0 0 0 0 0 0 0 0 0 0 0 0
0 0 0 0 0 0 0 0 0 0 0 0 0 0 0 0 0 0 0 0 0 0 0 0 0 0 0 0 0 0 0 0 0 0 0 0 -0 -0 -0 0 0 0 0 0
0 0 0 0 0 0 0 0 0 0 0 0 0 0 0 0 0 0 0 0 0 0 0 0 0 0 0 0 0 0 0 0 0 0 0 0 -0 -0 -0 0 0 0 0 0
0 0 0 0 0 0 0 0 0 0 0 0 0 0 0 -0 -0 -0 0 0 0 0 0 0 0 0 0 0 0 0 0 0 0 0 0 0 0 0 0 0 0 0 0 0
0 0 0 0 0 0 0 0 0 0 0 -0 -0 -0 0 0 0 0 0 0 0 0 0 0 0 0 0 0 0 0 0 0 0 0 0 0 0 0 0 0 0 0 0 0
0 0 0 0 0 0 0 0 0 0 -0 -0 -0 0 0 0 0 0 0 0 0 0 0 0 0 0 0 0 0 0 0 0 0 0 0 0 0 0 0 0 0 0 0 0
0 0 0 0 0 0 0 -0 -0 -0 -0 0 0 0 0 0 0 0 0 0 0 0 0 0 0 0 0 0 0 0 0 0 0 0 0 0 0 0 0 0 0 0 0 0
0 0 0 0 0 0 0 -0 0 0 0 0 0 0 0 0 0 0 0 0 0 0 0 0 -0 -0 0 0 0 0 0 0 0 0 0 0 0 0 0 0 0 0 0 0
0 0 0 0 0 0 0 0 0 0 0 0 0 0 0 0 0 0 0 0 0 0 0 0 0 0 0 0 0 0 0 0 0 0 0 0 0 0 0 0 0 0 0 0
0 0 0 0 0 0 0 0 0 0 0 0 0 0 0 0 0 0 0 0 0 0 0 0 0 0 0 0 0 0 0 0 0 0 0 0 0 0 0 0 0 0 0 0
0 0 0 0 0 0 0 0 0 0 0 0 0 0 0 0 0 0 0 0 0 0 0 0 0 0 0 0 0 0 0 0 0 0 0 0 0 0 0 0 0 0 0 0
Wind_Speed
3 1 2 2 2 2 2 5 6 4 4 5 4 4 4 6 8 7 6 7 7 8 7 8 8 7 8 9 8 8 8 8 8 7 7 6 6 6 6 7 7 6 5 4
3 4 4 3 3 2 2 1 3 4 1 2 2 3 3 5 9 9 7 6 6 6 7 8 9 9 8 8 8 8 8 8 7 7 7 7 7 6 6 5 5 5 5 5
1 3 5 2 2 2 3 3 2 3 2 2 5 5 4 4 6 6 7 7 7 6 6 7 7 8 9 8 7 8 7 7 6 6 7 7 7 6 6 5 5 5 4 4
3 4 1 6 2 6 8 7 5 4 3 4 6 5 4 4 5 5 5 5 4 5 5 5 5 6 7 7 7 8 7 7 6 6 6 5 5 6 5 4 4 4 4 4
4 3 2 4 2 2 5 4 4 5 4 4 5 6 6 5 5 5 5 5 4 3 4 5 5 6 7 7 7 7 7 6 7 7 6 6 6 5 4 4 4 3 3 3
4 4 4 4 4 1 8 2 2 4 3 3 3 3 0 2 4 5 6 4 4 4 5 5 5 6 7 7 7 6 6 6 6 6 6 6 6 5 4 5 5 5 5 4
4 3 3 3 5 3 4 4 1 2 2 3 2 3 4 4 5 5 6 6 5 5 5 4 5 7 8 7 6 5 6 6 6 6 7 7 6 5 6 6 7 6 6 5
4 3 5 4 3 3 4 2 2 3 3 5 6 7 7 7 6 7 7 7 7 7 6 5 5 9 9 8 6 8 9 8 7 7 6 7 8 7 7 7 8 6 6 6
4 4 2 2 3 1 2 3 2 3 4 8 8 7 8 7 7 8 8 7 7 8 9 8 7 9 11 8 7 9 10 10 9 9 8 8 8 8 7 6 6 5 6 6
3 3 3 5 4 4 3 3 3 4 6 8 9 8 8 8 7 7 8 8 8 9 10 9 8 9 9 8 8 11 11 10 9 10 10 9 7 6 6 6 7 6 6 6
3 2 3 4 4 4 5 5 5 6 6 8 10 9 9 8 8 7 8 8 8 9 10 10 9 10 9 8 10 12 11 10 9 9 9 10 9 8 7 6 6 7 6 5
4 5 4 2 1 3 5 5 6 8 8 7 8 10 10 9 7 8 8 8 9 9 9 9 10 10 8 8 9 11 10 8 7 7 7 8 10 10 14 12 14 13 10 8
4 3 4 4 2 3 5 6 7 8 8 8 7 9 11 10 8 9 9 9 10 10 9 9 9 9 8 7 8 9 9 8 7 7 7 7 7 8 8 9 12 13 12 11
6 6 5 3 3 4 6 8 8 9 8 9 9 11 11 11 10 10 9 9 9 10 10 9 10 9 7 7 9 9 8 9 8 6 6 6 6 6 6 7 6 5 7 11
3 5 6 6 6 6 7 10 11 10 10 10 10 11 12 12 11 10 9 9 10 10 9 9 9 7 6 8 9 8 7 6 6 6 6 7 6 6 6 7 6 4 4 6
6 7 8 8 8 8 9 11 12 10 10 11 11 11 12 12 12 10 9 9 10 9 8 8 7 5 6 7 8 7 7 10 9 7 7 7 6 6 6 6 5 5 4 3
9 8 8 9 9 10 10 10 11 11 11 12 12 12 13 13 12 11 10 9 9 8 7 7 6 5 6 7 7 5 6 8 11 8 6 6 6 6 6 6 5 5 4 4
7 8 8 10 11 11 11 11 12 12 11 12 12 12 12 12 11 9 8 8 9 9 7 5 5 6 6 6 6 6 6 6 6 7 6 6 6 6 6 6 6 6 4 5
10 10 10 11 11 11 11 11 11 11 11 11 12 11 10 10 9 8 8 8 8 7 4 5 9 8 7 7 7 6 7 7 7 7 6 8 7 6 5 5 5 5 5 4
11 12 12 11 11 11 12 11 11 11 10 11 12 11 10 8 8 8 8 7 4 3 3 6 7 6 6 6 8 6 7 8 8 7 7 6 6 6 5 5 5 5 5 4
12 12 12 11 11 11 11 11 11 10 9 9 10 10 9 7 7 7 8 6 3 4 6 8 6 5 5 6 8 7 7 7 7 6 6 6 6 6 5 5 5 5 4 4
10 10 11 10 11 10 9 9 10 11 10 9 9 9 9 8 7 7 6 4 3 6 5 5 4 7 8 8 6 6 7 7 6 6 6 5 5 5 5 5 4 4 4 3
8 9 9 9 10 9 9 9 9 10 10 9 9 8 8 6 5 6 5 2 4 7 6 5 8 11 11 7 6 6 6 6 6 5 5 5 5 4 4 4 4 4 3 3
8 8 9 9 10 10 10 9 8 8 8 8 7 7 8 7 5 3 4 6 8 8 5 6 11 11 9 5 5 6 6 5 5 5 5 5 4 4 4 4 4 3 4 4
9 9 10 10 9 8 8 9 9 9 8 6 7 6 5 5 5 4 5 6 8 7 5 6 10 9 6 4 5 5 4 4 5 5 4 4 4 4 4 4 4 3 3 3
8 7 7 7 6 6 6 7 6 5 6 6 5 5 5 4 6 5 5 5 6 6 4 3 4 5 4 4 4 4 4 4 5 4 5 4 5 4 4 4 5 3 3 3
8 7 6 6 5 5 6 7 7 6 6 7 6 5 5 5 5 5 5 4 4 3 3 2 3 3 3 3 4 3 3 4 4 4 4 4 4 4 4 4 3 3 3 3
Wind_Direction
149 148 107 75 33 51 104 169 168 187 176 212 205 179 155 142 141 137 144 152 161 171 173 170 169 170 173 174 172 170 169 177 185 181 177 177 175 175 174 176 177 173 172 175
39 36 53 34 6 38 59 116 141 128 197 211 157 124 115 136 141 147 159 161 159 162 167 174 175 174 172 175 175 170 174 182 183 175 174 177 178 174 173 172 166 157 166 170
24 7 46 342 320 76 69 35 113 140 223 129 107 117 132 129 131 143 155 155 161 166 172 179 179 172 172 172 164 164 172 175 173 173 177 179 177 168 171 172 161 158 171 169
107 62 190 246 295 96 92 54 53 84 79 108 123 118 99 103 121 127 124 134 153 157 160 165 163 160 159 155 158 161 165 169 168 166 170 167 162 166 173 164 161 163 164 170
117 138 262 298 342 88 105 54 30 78 78 90 107 78 55 53 82 101 114 124 136 147 147 141 150 156 151 154 156 159 166 169 170 168 164 161 160 164 157 142 139 136 137 141
128 148 210 244 306 13 102 83 344 76 102 114 87 87 98 57 77 84 86 90 100 115 124 126 140 145 142 147 146 154 160 158 154 151 149 150 151 144 133 130 127 119 101 93
146 162 238 281 311 38 119 207 279 84 116 123 114 153 141 102 79 78 79 76 78 84 97 114 127 126 123 122 128 132 123 117 118 124 125 125 120 113 113 111 106 103 96 81
143 159 234 309 43 105 182 179 101 91 111 112 113 116 112 102 89 79 72 69 76 84 78 76 96 109 105 102 102 101 100 97 95 96 104 110 107 103 104 107 103 98 95 80
162 182 203 45 97 114 133 117 119 132 131 123 117 117 110 98 92 86 81 75 72 81 81 74 78 98 103 99 99 99 95 92 90 85 80 86 97 102 100 97 100 96 89 82
84 84 69 53 51 38 57 99 115 128 129 127 124 122 113 104 97 89 84 81 79 80 82 79 77 82 90 94 97 96 96 94 92 90 83 76 75 80 89 93 98 94 90 87
98 127 76 35 32 40 53 73 89 96 108 120 120 118 115 108 104 99 90 83 81 82 84 83 82 80 79 86 94 93 93 92 90 89 92 85 76 66 75 69 93 102 100 100
184 191 155 167 30 68 82 84 99 103 97 104 118 120 114 105 99 99 95 91 87 82 82 81 83 83 78 81 95 100 97 94 94 94 93 94 94 79 60 75 78 83 92 97
146 134 126 135 103 93 104 100 101 107 113 112 108 113 111 105 96 94 92 90 90 88 84 81 81 79 79 83 89 96 101 102 102 103 104 103 103 104 97 71 66 71 76 81
119 113 109 121 121 109 109 107 102 98 98 104 107 109 107 103 98 93 89 87 88 87 82 79 78 73 72 84 89 90 94 98 101 102 105 106 104 103 104 104 90 60 53 69
106 116 135 131 118 113 112 114 109 104 100 97 101 105 106 104 99 94 89 87 85 83 79 78 78 68 65 80 88 89 90 93 95 97 102 104 103 99 97 95 93 83 64 53
112 109 120 124 128 127 122 119 115 112 109 104 100 101 101 100 96 91 86 84 85 82 78 76 72 63 69 81 87 88 91 98 102 101 100 101 101 101 98 96 91 84 76 68
132 135 135 131 130 128 126 124 121 119 115 111 109 106 103 99 94 90 84 80 79 75 72 75 71 63 68 79 87 90 90 94 97 98 98 100 100 100 100 98 96 90 79 77
133 139 141 137 132 126 121 118 118 116 115 115 112 108 105 103 101 97 92 87 79 67 54 59 67 68 68 75 85 88 90 89 92 97 97 96 97 96 96 96 97 94 81 74
117 118 116 118 120 118 116 115 113 111 112 113 111 108 107 106 108 105 97 88 84 74 44 48 64 66 66 71 82 86 92 92 90 90 94 98 94 91 94 96 94 92 91 83
120 119 117 117 119 119 119 117 115 113 113 114 113 111 110 110 109 104 95 84 75 86 70 64 64 61 61 71 82 88 93 95 96 94 93 94 96 93 92 95 95 94 91 88
125 125 124 122 120 120 120 121 119 118 119 119 120 120 118 113 107 103 99 89 56 69 70 68 65 63 66 79 86 91 94 96 97 97 98 98 98 97 95 94 96 99 98 95
123 123 123 121 118 118 119 120 122 122 120 118 117 117 114 109 103 93 88 102 100 88 77 64 64 71 77 79 84 91 94 97 97 98 99 100 102 102 100 102 103 103 101 98
116 118 119 121 121 120 117 117 119 121 122 123 123 120 116 114 114 113 103 89 93 90 84 75 81 79 80 77 83 90 95 99 101 103 105 106 108 110 109 106 104 104 103 98
109 113 119 120 116 115 116 116 114 114 115 115 116 118 116 109 93 89 113 112 106 99 91 88 84 81 79 77 82 89 96 100 103 105 105 105 107 107 107 107 102 101 103 101
101 104 109 111 112 115 118 116 111 108 106 104 106 107 110 116 120 120 112 111 111 101 90 87 87 84 80 84 87 90 96 103 109 110 111 115 114 111 111 112 113 112 110 110
96 98 100 104 112 115 115 113 111 111 112 108 103 105 106 105 111 114 112 115 116 110 103 90 90 89 90 91 93 95 97 100 99 103 114 117 115 113 113 115 118 121 125 125
92 94 97 96 97 102 108 111 114 116 119 121 117 116 117 115 113 116 116 113 112 108 106 104 106 106 107 102 97 96 99 104 105 109 113 118 122 124 129 130 134 136 135 136